Regional Weather Roundup
Issued by NWS

Home | Current Version | Previous Version | Text Only | Print | Product List | Glossary Off
Versions: 1 2 3 4 5 6 7 8 9 10 11 12 13 14 15 16 17 18 19 20 21 22 23 24 25 26 27 28 29 30 31 32 33 34 35 36 37 38 39 40 41 42 43 44 45 46 47 48 49 50

441
ASUS43 KDMX 052303
RWRIA

WEATHER ROUNDUP FOR IOWA
NATIONAL WEATHER SERVICE DES MOINES IA
600 PM CDT THU MAY 05 2016

NOTE: "FAIR" INDICATES FEW OR NO CLOUDS BELOW 12,000 FEET WITH NO
SIGNIFICANT WEATHER AND/OR OBSTRUCTIONS TO VISIBILITY.

* - THESE STATIONS ARE NOT NWS STATIONS...THUS NOT UNDER NWS
QUALITY CONTROL.  THEY ALSO DO NOT REPORT WEATHER SUCH
AS PRECIPITATION OR FOG.

IAZ001>003-012>014-020>022-031>034-043>046-060000-
   NORTHWEST IOWA

CITY           SKY/WX    TMP DP  RH WIND       PRES   REMARKS
CARROLL *      SUNNY     77  36  22 SW5G14    29.99F
CHEROKEE *     SUNNY     74  42  31 S8        29.98F
DENISON *      SUNNY     75  37  25 SW6       29.98F
LE MARS *      SUNNY     77  43  29 SW12      29.98F
ORANGE CITY *  SUNNY     77  45  31 S9G16     29.98S
SHELDON *      SUNNY     77  39  25 S10G16    29.96S
SIOUX CITY     SUNNY     78  47  33 SE13      29.97F
SPENCER        SUNNY     77  35  21 SW9       29.97F
STORM LAKE *   SUNNY     75  34  22 W8G14     30.00S
$$

IAZ055>058-069>071-079>083-090>094-060000-
   SOUTHWEST IOWA

CITY           SKY/WX    TMP DP  RH WIND       PRES   REMARKS
ATLANTIC *     SUNNY     73  37  27 S3G13     30.01F
AUDUBON *        N/A     75  28  17 W6        30.02F
CLARINDA *       N/A     73  37  27 MISG      30.04S
COUNCIL BLFS * SUNNY     75  41  29 S5        30.01F
CRESTON *      SUNNY     70  37  30 CALM      30.04F
HARLAN  *      SUNNY     75  34  22 CALM      30.04S
LAMONI         SUNNY     70  37  29 VRB3      30.03F
RED OAK *      SUNNY     75  36  23 VRB3      30.02F
SHENANDOAH *   SUNNY     75  36  23 CALM      30.03S
$$

IAZ047>049-059>061-072>074-084-060000-
   CENTRAL IOWA

CITY           SKY/WX    TMP DP  RH WIND       PRES   REMARKS
AMES           SUNNY     72  36  26 W8        30.00F
ANKENY *       SUNNY     70  39  32 W6        30.01F
BOONE *        MOSUNNY   72  36  26 SW8       29.99F
CHARITON *     SUNNY     68  34  28 NW6       30.03F
DES MOINES     MOSUNNY   72  35  25 W6        30.02F
GRINNELL*      SUNNY     68  30  24 NW7       30.02F
KNOXVILLE *    LGT RAIN  68  30  24 W5        30.01F
MARSHALLTOWN   SUNNY     70  36  28 W3        30.00S
NEWTON *       SUNNY     70  30  23 CALM      30.01F
PERRY *          N/A     73  34  23 SW7       30.01F
$$

IAZ004>006-015-016-023>025-035-036-060000-
   NORTH CENTRAL IOWA

CITY           SKY/WX    TMP DP  RH WIND       PRES   REMARKS
ALGONA *       SUNNY     75  36  23 W10       29.98F
CLARION *      SUNNY     75  34  22 W12       29.98F
ESTHERVILLE    SUNNY     75  40  28 SW9       29.97F
FORT DODGE *   SUNNY     73  43  33 W7        29.99F
MASON CITY     CLOUDY    73  38  27 SW7       29.98F
FOREST CITY *    N/A     72  34  25 W7G16     29.97F
WEBSTER CITY * MOSUNNY   73  37  27 W10       29.97F
IOWA FALLS *     N/A     72  36  26 W7        30.00F
$$

IAZ007>011-017>019-026>030-037>042-050>054-066-060000-
   NORTHEAST IOWA

CITY           SKY/WX    TMP DP  RH WIND       PRES   REMARKS
CEDAR RAPIDS   SUNNY     68  33  27 N8        29.99F
CHARLES CITY * SUNNY     72  30  21 S7G13     29.98F
CLINTON *      SUNNY     65  39  38 N7        30.00F
DECORAH *      SUNNY     68  34  28 VRB7      29.97F
DUBUQUE        SUNNY     65  34  31 N7        30.00F
MONTICELLO *   SUNNY     68  32  26 VRB5      29.98F
OELWEIN *      SUNNY     68  32  26 W10       30.00F
WATERLOO       SUNNY     69  33  26 VRB3      29.99F
$$

IAZ064-065-067-068-078-060000-
   EAST CENTRAL IOWA

CITY           SKY/WX    TMP DP  RH WIND       PRES   REMARKS
DAVENPORT      SUNNY     67  34  29 N10G16    30.00F
IOWA CITY      SUNNY     68  34  28 NW9       30.01F
MT. PLEASANT * SUNNY     70  34  26 NW6       30.01F
MUSCATINE *    SUNNY     68  36  30 NW10      30.01S
QUAD CITIES    SUNNY     68  38  33 NW8       29.99F
$$

IAZ062-063-075>077-085>089-095>099-060000-
   SOUTHEAST IOWA

CITY           SKY/WX    TMP DP  RH WIND       PRES   REMARKS
BURLINGTON     SUNNY     66  39  37 N10       30.01S
FAIRFIELD *    SUNNY     68  30  24 N10       30.02S
FORT MADISON * SUNNY     66  37  34 NW8       30.02F
KEOKUK *       SUNNY     68  37  32 NW8       30.01F
OSKALOOSA *      N/A     70  25  18 N7        30.02F
OTTUMWA        SUNNY     68  38  33 NW8       30.02F
WASHINGTON *   SUNNY     68  34  28 N7        30.02S
$$

ABBREVIATIONS USED IN REMARKS
   TC - TEMPERATURES IN CELSIUS
  WCI - WIND CHILL INDEX
   HX - HEAT INDEX
  VSB - VISIBILITY
$$





USA.gov is the U.S. government's official web portal to all federal, state and local government web resources and services.